"Sample Date","Sample Time","Sensor Name","Sample Value","Units","Flow Rate","Sample Interval","Sample Volume","Laser Status","Number Channels","Micron Size 0","Counts/Channel 0","Micron Size 1","Counts/Channel 1","Micron Size 2","Counts/Channel 2","Micron Size 3","Counts/Channel 3","Micron Size 4","Counts/Channel 4","Micron Size 5","Counts/Channel 5","Micron Size 6","Counts/Channel 6","Micron Size 7","Counts/Channel 7","Micron Size 8","Counts/Channel 8","Micron Size 9","Counts/Channel 9","Micron Size 10","Counts/Channel 10","Micron Size 11","Counts/Channel 11","Micron Size 12","Counts/Channel 12","Micron Size 13","Counts/Channel 13","Micron Size 14","Counts/Channel 14","Micron Size 15","Counts/Channel 15","Micron Size 16","Counts/Channel 16","Micron Size 17","Counts/Channel 17","Micron Size 18","Counts/Channel 18","Micron Size 19","Counts/Channel 19","Micron Size 20","Counts/Channel 20","Micron Size 21","Counts/Channel 21","Micron Size 22","Counts/Channel 22","Micron Size 23","Counts/Channel 23","Micron Size 24","Counts/Channel 24","Micron Size 25","Counts/Channel 25","Micron Size 26","Counts/Channel 26","Micron Size 27","Counts/Channel 27","Micron Size 28","Counts/Channel 28","Micron Size 29","Counts/Channel 29","Micron Size 30","Counts/Channel 30","Micron Size 31","Counts/Channel 31"
"07/03/06","17:00:02","AMMA06",67038.000,"cc",28345.254,6.00,2834.526,1,6,0.100,33277.000,0.200,25344.000,0.300,5146.000,0.500,2005.000,1.000,1266.000,5.000,0
"07/03/06","17:00:08","AMMA06",67057.000,"cc",28311.088,6.00,2831.109,1,6,0.100,33461.000,0.200,25099.000,0.300,5279.000,0.500,2011.000,1.000,1206.000,5.000,1.000
"07/03/06","17:00:14","AMMA06",66902.000,"cc",28330.199,6.00,2833.020,1,6,0.100,33646.000,0.200,24817.000,0.300,5186.000,0.500,1968.000,1.000,1284.000,5.000,1.000
"07/03/06","17:00:20","AMMA06",66642.000,"cc",28312.963,6.00,2831.296,1,6,0.100,33038.000,0.200,25136.000,0.300,5163.000,0.500,2061.000,1.000,1244.000,5.000,0
"07/03/06","17:00:26","AMMA06",66684.000,"cc",28278.408,6.00,2827.841,1,6,0.100,33388.000,0.200,24967.000,0.300,5068.000,0.500,1969.000,1.000,1291.000,5.000,1.000
"07/03/06","17:00:32","AMMA06",66863.000,"cc",28337.754,6.00,2833.776,1,6,0.100,33542.000,0.200,24930.000,0.300,5213.000,0.500,1972.000,1.000,1206.000,5.000,0
"07/03/06","17:00:38","AMMA06",67310.000,"cc",28305.117,6.00,2830.512,1,6,0.100,33376.000,0.200,25439.000,0.300,5232.000,0.500,1947.000,1.000,1314.000,5.000,2.000
"07/03/06","17:00:44","AMMA06",67168.000,"cc",28271.863,6.00,2827.187,1,6,0.100,33938.000,0.200,24951.000,0.300,5061.000,0.500,1983.000,1.000,1231.000,5.000,4.000
"07/03/06","17:00:50","AMMA06",66350.000,"cc",28309.354,6.00,2830.936,1,6,0.100,33002.000,0.200,25066.000,0.300,5092.000,0.500,1970.000,1.000,1219.000,5.000,1.000
"07/03/06","17:00:56","AMMA06",66670.000,"cc",28331.666,6.00,2833.167,1,6,0.100,33489.000,0.200,24906.000,0.300,5109.000,0.500,1941.000,1.000,1223.000,5.000,2.000
"07/03/06","17:01:02","AMMA06",67179.000,"cc",28326.885,6.00,2832.689,1,6,0.100,33500.000,0.200,25245.000,0.300,5119.000,0.500,2030.000,1.000,1282.000,5.000,3.000
"07/03/06","17:01:08","AMMA06",66491.000,"cc",28322.705,6.00,2832.271,1,6,0.100,33196.000,0.200,24998.000,0.300,4975.000,0.500,2054.000,1.000,1267.000,5.000,1.000
"07/03/06","17:01:14","AMMA06",66752.000,"cc",28312.637,6.00,2831.264,1,6,0.100,33375.000,0.200,25000.000,0.300,5081.000,0.500,2031.000,1.000,1264.000,5.000,1.000
"07/03/06","17:01:20","AMMA06",66466.000,"cc",28328.783,6.00,2832.878,1,6,0.100,33547.000,0.200,24860.000,0.300,4964.000,0.500,1890.000,1.000,1201.000,5.000,4.000
"07/03/06","17:01:26","AMMA06",66860.000,"cc",28295.094,6.00,2829.510,1,6,0.100,33736.000,0.200,24703.000,0.300,5109.000,0.500,2053.000,1.000,1259.000,5.000,0
"07/03/06","17:01:32","AMMA06",66933.000,"cc",28352.857,6.00,2835.286,1,6,0.100,33738.000,0.200,24960.000,0.300,5071.000,0.500,1943.000,1.000,1220.000,5.000,1.000
"07/03/06","17:01:38","AMMA06",66961.000,"cc",28290.203,6.00,2829.021,1,6,0.100,33740.000,0.200,24962.000,0.300,5084.000,0.500,1965.000,1.000,1207.000,5.000,3.000
"07/03/06","17:01:44","AMMA06",66370.000,"cc",28281.293,6.00,2828.129,1,6,0.100,33448.000,0.200,24675.000,0.300,5028.000,0.500,1943.000,1.000,1273.000,5.000,3.000
"07/03/06","17:01:50","AMMA06",66590.000,"cc",28352.900,6.00,2835.290,1,6,0.100,33698.000,0.200,24732.000,0.300,5030.000,0.500,1874.000,1.000,1256.000,5.000,0
"07/03/06","17:01:56","AMMA06",66876.000,"cc",28291.104,6.00,2829.111,1,6,0.100,33609.000,0.200,24885.000,0.300,5160.000,0.500,1967.000,1.000,1254.000,5.000,1.000
"07/03/06","17:02:02","AMMA06",66728.000,"cc",28290.391,6.00,2829.039,1,6,0.100,33588.000,0.200,24756.000,0.300,5067.000,0.500,2031.000,1.000,1284.000,5.000,2.000
"07/03/06","17:02:08","AMMA06",67249.000,"cc",28321.772,6.00,2832.177,1,6,0.100,33947.000,0.200,25054.000,0.300,4967.000,0.500,2003.000,1.000,1278.000,5.000,0
"07/03/06","17:02:14","AMMA06",67237.000,"cc",28335.330,6.00,2833.533,1,6,0.100,33996.000,0.200,24923.000,0.300,5134.000,0.500,1972.000,1.000,1210.000,5.000,2.000
"07/03/06","17:02:20","AMMA06",66680.000,"cc",28296.783,6.00,2829.679,1,6,0.100,33573.000,0.200,24867.000,0.300,5066.000,0.500,1905.000,1.000,1268.000,5.000,1.000
"07/03/06","17:02:26","AMMA06",67043.000,"cc",28372.084,6.00,2837.209,1,6,0.100,33787.000,0.200,24921.000,0.300,5062.000,0.500,2039.000,1.000,1233.000,5.000,1.000
"07/03/06","17:02:32","AMMA06",66679.000,"cc",28314.805,6.00,2831.481,1,6,0.100,33538.000,0.200,24841.000,0.300,5023.000,0.500,1994.000,1.000,1283.000,5.000,0
"07/03/06","17:02:38","AMMA06",66836.000,"cc",28323.981,6.00,2832.398,1,6,0.100,33340.000,0.200,25208.000,0.300,5092.000,0.500,1935.000,1.000,1260.000,5.000,1.000
"07/03/06","17:02:44","AMMA06",66808.000,"cc",28361.959,6.00,2836.196,1,6,0.100,33540.000,0.200,24945.000,0.300,5064.000,0.500,1961.000,1.000,1298.000,5.000,0
"07/03/06","17:02:50","AMMA06",66991.000,"cc",28292.869,6.00,2829.287,1,6,0.100,33304.000,0.200,25244.000,0.300,5108.000,0.500,2030.000,1.000,1305.000,5.000,0
"07/03/06","17:02:56","AMMA06",66975.000,"cc",28220.844,6.00,2822.085,1,6,0.100,33619.000,0.200,24975.000,0.300,5075.000,0.500,2010.000,1.000,1294.000,5.000,2.000
"07/03/06","17:03:02","AMMA06",67300.000,"cc",28366.178,6.00,2836.618,1,6,0.100,33956.000,0.200,24972.000,0.300,5133.000,0.500,2012.000,1.000,1225.000,5.000,2.000
"07/03/06","17:03:08","AMMA06",67412.000,"cc",28358.221,6.00,2835.822,1,6,0.100,33574.000,0.200,25279.000,0.300,5149.000,0.500,2126.000,1.000,1283.000,5.000,1.000
"07/03/06","17:03:14","AMMA06",67321.000,"cc",28337.166,6.00,2833.717,1,6,0.100,33836.000,0.200,24973.000,0.300,5181.000,0.500,1998.000,1.000,1332.000,5.000,1.000
"07/03/06","17:03:20","AMMA06",67304.000,"cc",28271.772,6.00,2827.177,1,6,0.100,33867.000,0.200,25152.000,0.300,5011.000,0.500,1987.000,1.000,1282.000,5.000,5.000
"07/03/06","17:03:26","AMMA06",66810.000,"cc",28297.565,6.00,2829.757,1,6,0.100,33496.000,0.200,24822.000,0.300,5168.000,0.500,2013.000,1.000,1310.000,5.000,1.000
"07/03/06","17:03:32","AMMA06",66817.000,"cc",28363.115,6.00,2836.312,1,6,0.100,33517.000,0.200,25091.000,0.300,5061.000,0.500,1904.000,1.000,1244.000,5.000,0
"07/03/06","17:03:38","AMMA06",67363.000,"cc",28336.813,6.00,2833.681,1,6,0.100,33655.000,0.200,25211.000,0.300,5222.000,0.500,2006.000,1.000,1267.000,5.000,2.000
"07/03/06","17:03:44","AMMA06",67095.000,"cc",28271.588,6.00,2827.159,1,6,0.100,33685.000,0.200,24950.000,0.300,5190.000,0.500,2009.000,1.000,1258.000,5.000,3.000
"07/03/06","17:03:50","AMMA06",66984.000,"cc",28255.049,6.00,2825.505,1,6,0.100,33493.000,0.200,25085.000,0.300,5206.000,0.500,1957.000,1.000,1243.000,5.000,0
"07/03/06","17:03:56","AMMA06",67623.000,"cc",28320.379,6.00,2832.038,1,6,0.100,33597.000,0.200,25456.000,0.300,5214.000,0.500,2096.000,1.000,1258.000,5.000,2.000
"07/03/06","17:04:02","AMMA06",67461.000,"cc",28361.727,6.00,2836.173,1,6,0.100,33769.000,0.200,25042.000,0.300,5396.000,0.500,2009.000,1.000,1243.000,5.000,2.000
"07/03/06","17:04:08","AMMA06",67707.000,"cc",28318.307,6.00,2831.831,1,6,0.100,33699.000,0.200,25574.000,0.300,5212.000,0.500,1978.000,1.000,1243.000,5.000,1.000
"07/03/06","17:04:14","AMMA06",66828.000,"cc",28328.549,6.00,2832.855,1,6,0.100,33176.000,0.200,25193.000,0.300,5148.000,0.500,1968.000,1.000,1342.000,5.000,1.000
"07/03/06","17:04:20","AMMA06",67409.000,"cc",28262.940,6.00,2826.294,1,6,0.100,33644.000,0.200,25285.000,0.300,5261.000,0.500,2012.000,1.000,1205.000,5.000,2.000
"07/03/06","17:04:26","AMMA06",67314.000,"cc",28338.203,6.00,2833.821,1,6,0.100,33637.000,0.200,25342.000,0.300,5112.000,0.500,1949.000,1.000,1272.000,5.000,2.000
"07/03/06","17:04:32","AMMA06",67315.000,"cc",28339.354,6.00,2833.936,1,6,0.100,33671.000,0.200,25083.000,0.300,5295.000,0.500,1987.000,1.000,1278.000,5.000,1.000
"07/03/06","17:04:38","AMMA06",67114.000,"cc",28316.982,6.00,2831.699,1,6,0.100,33411.000,0.200,25289.000,0.300,5200.000,0.500,1981.000,1.000,1231.000,5.000,2.000
"07/03/06","17:04:44","AMMA06",67503.000,"cc",28309.051,6.00,2830.905,1,6,0.100,33863.000,0.200,25263.000,0.300,5185.000,0.500,1975.000,1.000,1215.000,5.000,2.000
"07/03/06","17:04:50","AMMA06",67128.000,"cc",28290.223,6.00,2829.023,1,6,0.100,33307.000,0.200,25309.000,0.300,5287.000,0.500,1968.000,1.000,1256.000,5.000,1.000
"07/03/06","17:04:56","AMMA06",67130.000,"cc",28332.283,6.00,2833.229,1,6,0.100,33454.000,0.200,25227.000,0.300,5232.000,0.500,2013.000,1.000,1202.000,5.000,2.000
"07/03/06","17:05:02","AMMA06",67327.000,"cc",28327.742,6.00,2832.774,1,6,0.100,33689.000,0.200,25360.000,0.300,5056.000,0.500,1954.000,1.000,1267.000,5.000,1.000
"07/03/06","17:05:08","AMMA06",67824.000,"cc",28325.674,6.00,2832.568,1,6,0.100,33782.000,0.200,25578.000,0.300,5214.000,0.500,1980.000,1.000,1269.000,5.000,1.000
"07/03/06","17:05:14","AMMA06",66902.000,"cc",28352.690,6.00,2835.269,1,6,0.100,33323.000,0.200,25152.000,0.300,5222.000,0.500,1955.000,1.000,1248.000,5.000,2.000
"07/03/06","17:05:20","AMMA06",67437.000,"cc",28333.481,6.00,2833.348,1,6,0.100,33789.000,0.200,25214.000,0.300,5201.000,0.500,2009.000,1.000,1222.000,5.000,2.000
"07/03/06","17:05:26","AMMA06",66903.000,"cc",28335.320,6.00,2833.532,1,6,0.100,33397.000,0.200,25202.000,0.300,5146.000,0.500,1900.000,1.000,1257.000,5.000,1.000
"07/03/06","17:05:32","AMMA06",67349.000,"cc",28317.295,6.00,2831.730,1,6,0.100,33370.000,0.200,25369.000,0.300,5380.000,0.500,1978.000,1.000,1249.000,5.000,3.000
"07/03/06","17:05:38","AMMA06",67346.000,"cc",28277.732,6.00,2827.773,1,6,0.100,33565.000,0.200,25509.000,0.300,5169.000,0.500,1924.000,1.000,1178.000,5.000,1.000
"07/03/06","17:05:44","AMMA06",67474.000,"cc",28273.357,6.00,2827.336,1,6,0.100,33369.000,0.200,25593.000,0.300,5254.000,0.500,2015.000,1.000,1241.000,5.000,2.000
"07/03/06","17:05:50","AMMA06",67329.000,"cc",28316.553,6.00,2831.656,1,6,0.100,33541.000,0.200,25238.000,0.300,5308.000,0.500,1966.000,1.000,1276.000,5.000,0
"07/03/06","17:05:56","AMMA06",67223.000,"cc",28300.350,6.00,2830.035,1,6,0.100,33646.000,0.200,25076.000,0.300,5131.000,0.500,2035.000,1.000,1335.000,5.000,0
"07/03/06","17:06:02","AMMA06",67431.000,"cc",28365.584,6.00,2836.559,1,6,0.100,33430.000,0.200,25663.000,0.300,5144.000,0.500,1969.000,1.000,1223.000,5.000,2.000
"07/03/06","17:06:08","AMMA06",67375.000,"cc",28350.121,6.00,2835.012,1,6,0.100,33870.000,0.200,25043.000,0.300,5200.000,0.500,2016.000,1.000,1245.000,5.000,1.000
"07/03/06","17:06:14","AMMA06",67241.000,"cc",28349.164,6.00,2834.917,1,6,0.100,33581.000,0.200,25118.000,0.300,5264.000,0.500,2016.000,1.000,1261.000,5.000,1.000
"07/03/06","17:06:20","AMMA06",67657.000,"cc",28279.080,6.00,2827.908,1,6,0.100,33970.000,0.200,25332.000,0.300,5109.000,0.500,1984.000,1.000,1260.000,5.000,2.000
"07/03/06","17:06:26","AMMA06",67377.000,"cc",28278.525,6.00,2827.853,1,6,0.100,33451.000,0.200,25376.000,0.300,5279.000,0.500,2035.000,1.000,1235.000,5.000,1.000
"07/03/06","17:06:32","AMMA06",67347.000,"cc",28311.051,6.00,2831.105,1,6,0.100,33682.000,0.200,25279.000,0.300,5154.000,0.500,1947.000,1.000,1281.000,5.000,4.000
"07/03/06","17:06:38","AMMA06",66918.000,"cc",28327.635,6.00,2832.764,1,6,0.100,33611.000,0.200,25065.000,0.300,4942.000,0.500,1954.000,1.000,1346.000,5.000,0
"07/03/06","17:06:44","AMMA06",66946.000,"cc",28379.920,6.00,2837.992,1,6,0.100,33472.000,0.200,25251.000,0.300,5069.000,0.500,1896.000,1.000,1257.000,5.000,1.000
"07/03/06","17:06:50","AMMA06",67420.000,"cc",28299.486,6.00,2829.949,1,6,0.100,33805.000,0.200,25147.000,0.300,5248.000,0.500,2002.000,1.000,1216.000,5.000,2.000
"07/03/06","17:06:56","AMMA06",67025.000,"cc",28263.393,6.00,2826.339,1,6,0.100,33696.000,0.200,24972.000,0.300,5189.000,0.500,1948.000,1.000,1217.000,5.000,3.000
"07/03/06","17:07:02","AMMA06",67207.000,"cc",28330.740,6.00,2833.074,1,6,0.100,33774.000,0.200,25091.000,0.300,5123.000,0.500,1906.000,1.000,1312.000,5.000,1.000
"07/03/06","17:07:08","AMMA06",67226.000,"cc",28283.199,6.00,2828.320,1,6,0.100,33819.000,0.200,25034.000,0.300,5178.000,0.500,1936.000,1.000,1257.000,5.000,2.000
"07/03/06","17:07:14","AMMA06",67215.000,"cc",28300.326,6.00,2830.033,1,6,0.100,33720.000,0.200,25234.000,0.300,5131.000,0.500,1899.000,1.000,1229.000,5.000,2.000
"07/03/06","17:07:20","AMMA06",67526.000,"cc",28306.273,6.00,2830.627,1,6,0.100,33963.000,0.200,25359.000,0.300,5008.000,0.500,1995.000,1.000,1200.000,5.000,1.000
"07/03/06","17:07:26","AMMA06",67558.000,"cc",28360.650,6.00,2836.065,1,6,0.100,34073.000,0.200,25174.000,0.300,5156.000,0.500,1936.000,1.000,1216.000,5.000,3.000
"07/03/06","17:07:32","AMMA06",67180.000,"cc",28289.742,6.00,2828.974,1,6,0.100,33867.000,0.200,25011.000,0.300,5089.000,0.500,2035.000,1.000,1178.000,5.000,0
"07/03/06","17:07:38","AMMA06",67056.000,"cc",28281.178,6.00,2828.118,1,6,0.100,33545.000,0.200,25262.000,0.300,5094.000,0.500,1967.000,1.000,1188.000,5.000,0
"07/03/06","17:07:44","AMMA06",67517.000,"cc",28336.559,6.00,2833.656,1,6,0.100,34289.000,0.200,25016.000,0.300,5046.000,0.500,1989.000,1.000,1176.000,5.000,1.000
"07/03/06","17:07:50","AMMA06",67567.000,"cc",28358.309,6.00,2835.831,1,6,0.100,33879.000,0.200,25358.000,0.300,5105.000,0.500,1999.000,1.000,1223.000,5.000,3.000
"07/03/06","17:07:56","AMMA06",67186.000,"cc",28336.449,6.00,2833.645,1,6,0.100,33870.000,0.200,25029.000,0.300,5031.000,0.500,1972.000,1.000,1284.000,5.000,0
"07/03/06","17:08:02","AMMA06",67578.000,"cc",28322.762,6.00,2832.276,1,6,0.100,34136.000,0.200,25037.000,0.300,5197.000,0.500,1952.000,1.000,1255.000,5.000,1.000
"07/03/06","17:08:08","AMMA06",67461.000,"cc",28284.613,6.00,2828.461,1,6,0.100,33880.000,0.200,25291.000,0.300,5095.000,0.500,1960.000,1.000,1235.000,5.000,0
"07/03/06","17:08:14","AMMA06",67910.000,"cc",28284.531,6.00,2828.453,1,6,0.100,34297.000,0.200,25188.000,0.300,5124.000,0.500,2039.000,1.000,1260.000,5.000,2.000
"07/03/06","17:08:20","AMMA06",67400.000,"cc",28352.719,6.00,2835.272,1,6,0.100,33983.000,0.200,25074.000,0.300,5128.000,0.500,1987.000,1.000,1228.000,5.000,0
"07/03/06","17:08:26","AMMA06",67363.000,"cc",28274.701,6.00,2827.470,1,6,0.100,33509.000,0.200,25226.000,0.300,5355.000,0.500,2023.000,1.000,1247.000,5.000,3.000
"07/03/06","17:08:32","AMMA06",67742.000,"cc",28340.283,6.00,2834.029,1,6,0.100,34086.000,0.200,25288.000,0.300,5166.000,0.500,1976.000,1.000,1223.000,5.000,3.000
"07/03/06","17:08:38","AMMA06",67859.000,"cc",28266.797,6.00,2826.680,1,6,0.100,34058.000,0.200,25388.000,0.300,5121.000,0.500,1972.000,1.000,1320.000,5.000,0
"07/03/06","17:08:44","AMMA06",67733.000,"cc",28311.727,6.00,2831.173,1,6,0.100,34245.000,0.200,24996.000,0.300,5199.000,0.500,1983.000,1.000,1309.000,5.000,1.000
"07/03/06","17:08:50","AMMA06",67645.000,"cc",28393.022,6.00,2839.302,1,6,0.100,33875.000,0.200,25453.000,0.300,5082.000,0.500,2008.000,1.000,1226.000,5.000,1.000
"07/03/06","17:08:56","AMMA06",67659.000,"cc",28352.647,6.00,2835.265,1,6,0.100,34058.000,0.200,25234.000,0.300,5078.000,0.500,2066.000,1.000,1221.000,5.000,2.000
"07/03/06","17:09:02","AMMA06",67337.000,"cc",28286.607,6.00,2828.661,1,6,0.100,33925.000,0.200,25113.000,0.300,5130.000,0.500,1939.000,1.000,1230.000,5.000,0
"07/03/06","17:09:08","AMMA06",67781.000,"cc",28272.633,6.00,2827.263,1,6,0.100,34209.000,0.200,25309.000,0.300,5122.000,0.500,1920.000,1.000,1218.000,5.000,3.000
"07/03/06","17:09:14","AMMA06",67581.000,"cc",28341.904,6.00,2834.191,1,6,0.100,34171.000,0.200,25080.000,0.300,5050.000,0.500,2019.000,1.000,1261.000,5.000,0
"07/03/06","17:09:20","AMMA06",67687.000,"cc",28342.510,6.00,2834.251,1,6,0.100,33909.000,0.200,25389.000,0.300,5195.000,0.500,1991.000,1.000,1203.000,5.000,0
"07/03/06","17:09:26","AMMA06",68133.000,"cc",28274.252,6.00,2827.425,1,6,0.100,34307.000,0.200,25398.000,0.300,5231.000,0.500,1912.000,1.000,1282.000,5.000,3.000
"07/03/06","17:09:32","AMMA06",67273.000,"cc",28383.301,6.00,2838.330,1,6,0.100,33726.000,0.200,25157.000,0.300,5176.000,0.500,1983.000,1.000,1230.000,5.000,1.000
"07/03/06","17:09:38","AMMA06",67775.000,"cc",28313.373,6.00,2831.337,1,6,0.100,34099.000,0.200,25212.000,0.300,5228.000,0.500,1986.000,1.000,1247.000,5.000,3.000
"07/03/06","17:09:44","AMMA06",67391.000,"cc",28267.861,6.00,2826.786,1,6,0.100,33927.000,0.200,25054.000,0.300,5132.000,0.500,2046.000,1.000,1232.000,5.000,0
"07/03/06","17:09:50","AMMA06",67567.000,"cc",28303.797,6.00,2830.380,1,6,0.100,33918.000,0.200,25236.000,0.300,5226.000,0.500,1981.000,1.000,1206.000,5.000,0
"07/03/06","17:09:56","AMMA06",67609.000,"cc",28325.650,6.00,2832.565,1,6,0.100,34041.000,0.200,25198.000,0.300,5055.000,0.500,2053.000,1.000,1258.000,5.000,4.000
"07/03/06","17:10:02","AMMA06",67720.000,"cc",28323.318,6.00,2832.332,1,6,0.100,34277.000,0.200,25140.000,0.300,5141.000,0.500,1955.000,1.000,1205.000,5.000,2.000
"07/03/06","17:10:08","AMMA06",67590.000,"cc",28339.344,6.00,2833.935,1,6,0.100,34088.000,0.200,25147.000,0.300,5180.000,0.500,1931.000,1.000,1243.000,5.000,1.000
"07/03/06","17:10:14","AMMA06",67956.000,"cc",28306.459,6.00,2830.646,1,6,0.100,34267.000,0.200,25182.000,0.300,5234.000,0.500,2010.000,1.000,1261.000,5.000,2.000
"07/03/06","17:10:20","AMMA06",67568.000,"cc",28273.932,6.00,2827.393,1,6,0.100,33896.000,0.200,25313.000,0.300,5068.000,0.500,2023.000,1.000,1265.000,5.000,3.000
"07/03/06","17:10:26","AMMA06",67966.000,"cc",28314.635,6.00,2831.464,1,6,0.100,34277.000,0.200,25425.000,0.300,5014.000,0.500,1997.000,1.000,1250.000,5.000,3.000
"07/03/06","17:10:32","AMMA06",67581.000,"cc",28255.107,6.00,2825.511,1,6,0.100,34178.000,0.200,25119.000,0.300,5040.000,0.500,1986.000,1.000,1254.000,5.000,4.000
"07/03/06","17:10:38","AMMA06",68355.000,"cc",28352.031,6.00,2835.203,1,6,0.100,34540.000,0.200,25494.000,0.300,5107.000,0.500,1967.000,1.000,1246.000,5.000,1.000
"07/03/06","17:10:44","AMMA06",68138.000,"cc",28393.193,6.00,2839.320,1,6,0.100,34269.000,0.200,25397.000,0.300,5178.000,0.500,2025.000,1.000,1268.000,5.000,1.000
"07/03/06","17:10:50","AMMA06",67492.000,"cc",28283.555,6.00,2828.356,1,6,0.100,34216.000,0.200,24945.000,0.300,5141.000,0.500,1933.000,1.000,1257.000,5.000,0
"07/03/06","17:10:56","AMMA06",68755.000,"cc",28292.781,6.00,2829.278,1,6,0.100,34826.000,0.200,25412.000,0.300,5241.000,0.500,2051.000,1.000,1224.000,5.000,1.000
"07/03/06","17:11:02","AMMA06",68201.000,"cc",28332.957,6.00,2833.296,1,6,0.100,34482.000,0.200,25275.000,0.300,5241.000,0.500,2002.000,1.000,1200.000,5.000,1.000
"07/03/06","17:11:08","AMMA06",68128.000,"cc",28331.049,6.00,2833.105,1,6,0.100,34576.000,0.200,25162.000,0.300,5202.000,0.500,1921.000,1.000,1267.000,5.000,0
"07/03/06","17:11:14","AMMA06",67726.000,"cc",28276.611,6.00,2827.661,1,6,0.100,34160.000,0.200,25247.000,0.300,5100.000,0.500,1987.000,1.000,1231.000,5.000,1.000
"07/03/06","17:11:20","AMMA06",67800.000,"cc",28263.174,6.00,2826.318,1,6,0.100,34198.000,0.200,25217.000,0.300,5143.000,0.500,1960.000,1.000,1281.000,5.000,1.000
"07/03/06","17:11:26","AMMA06",68018.000,"cc",28342.811,6.00,2834.281,1,6,0.100,34432.000,0.200,25230.000,0.300,5231.000,0.500,1914.000,1.000,1211.000,5.000,0
"07/03/06","17:11:32","AMMA06",67908.000,"cc",28361.910,6.00,2836.191,1,6,0.100,34226.000,0.200,25486.000,0.300,5009.000,0.500,1952.000,1.000,1233.000,5.000,2.000
"07/03/06","17:11:38","AMMA06",68509.000,"cc",28328.272,6.00,2832.827,1,6,0.100,34647.000,0.200,25167.000,0.300,5327.000,0.500,2082.000,1.000,1285.000,5.000,1.000
"07/03/06","17:11:44","AMMA06",68256.000,"cc",28344.781,6.00,2834.478,1,6,0.100,34543.000,0.200,25276.000,0.300,5167.000,0.500,2009.000,1.000,1260.000,5.000,1.000
"07/03/06","17:11:50","AMMA06",67958.000,"cc",28262.656,6.00,2826.266,1,6,0.100,34395.000,0.200,25038.000,0.300,5184.000,0.500,2069.000,1.000,1272.000,5.000,0
"07/03/06","17:11:56","AMMA06",67962.000,"cc",28345.488,6.00,2834.549,1,6,0.100,34161.000,0.200,25405.000,0.300,5083.000,0.500,2011.000,1.000,1302.000,5.000,0
"07/03/06","17:12:02","AMMA06",67929.000,"cc",28305.670,6.00,2830.567,1,6,0.100,33989.000,0.200,25492.000,0.300,5090.000,0.500,2048.000,1.000,1308.000,5.000,2.000
"07/03/06","17:12:08","AMMA06",68013.000,"cc",28267.061,6.00,2826.706,1,6,0.100,34398.000,0.200,25136.000,0.300,5195.000,0.500,2049.000,1.000,1235.000,5.000,0
"07/03/06","17:12:14","AMMA06",68420.000,"cc",28364.293,6.00,2836.429,1,6,0.100,34652.000,0.200,25293.000,0.300,5326.000,0.500,1937.000,1.000,1211.000,5.000,1.000
"07/03/06","17:12:20","AMMA06",67918.000,"cc",28278.965,6.00,2827.897,1,6,0.100,34114.000,0.200,25243.000,0.300,5208.000,0.500,2007.000,1.000,1344.000,5.000,2.000
"07/03/06","17:12:26","AMMA06",68189.000,"cc",28295.020,6.00,2829.502,1,6,0.100,34558.000,0.200,25190.000,0.300,5175.000,0.500,1995.000,1.000,1271.000,5.000,0
"07/03/06","17:12:32","AMMA06",67994.000,"cc",28383.492,6.00,2838.349,1,6,0.100,34492.000,0.200,25006.000,0.300,5257.000,0.500,1962.000,1.000,1276.000,5.000,1.000
"07/03/06","17:12:38","AMMA06",68053.000,"cc",28295.406,6.00,2829.541,1,6,0.100,34480.000,0.200,25163.000,0.300,5158.000,0.500,1957.000,1.000,1294.000,5.000,1.000
"07/03/06","17:12:44","AMMA06",68320.000,"cc",28328.033,6.00,2832.804,1,6,0.100,34610.000,0.200,25143.000,0.300,5218.000,0.500,1995.000,1.000,1353.000,5.000,1.000
"07/03/06","17:12:50","AMMA06",68625.000,"cc",28312.061,6.00,2831.206,1,6,0.100,34736.000,0.200,25456.000,0.300,5236.000,0.500,1893.000,1.000,1304.000,5.000,0
"07/03/06","17:12:56","AMMA06",68410.000,"cc",28322.428,6.00,2832.243,1,6,0.100,34536.000,0.200,25393.000,0.300,5264.000,0.500,1952.000,1.000,1263.000,5.000,2.000
"07/03/06","17:13:02","AMMA06",68404.000,"cc",28308.672,6.00,2830.867,1,6,0.100,34313.000,0.200,25518.000,0.300,5323.000,0.500,1961.000,1.000,1287.000,5.000,2.000
"07/03/06","17:13:08","AMMA06",68475.000,"cc",28324.127,6.00,2832.413,1,6,0.100,34438.000,0.200,25595.000,0.300,5148.000,0.500,1993.000,1.000,1298.000,5.000,3.000
"07/03/06","17:13:14","AMMA06",68384.000,"cc",28338.311,6.00,2833.831,1,6,0.100,34419.000,0.200,25421.000,0.300,5233.000,0.500,1989.000,1.000,1322.000,5.000,0
"07/03/06","17:13:20","AMMA06",68826.000,"cc",28303.568,6.00,2830.357,1,6,0.100,34565.000,0.200,25505.000,0.300,5416.000,0.500,2019.000,1.000,1319.000,5.000,2.000
"07/03/06","17:13:26","AMMA06",68420.000,"cc",28290.352,6.00,2829.035,1,6,0.100,34564.000,0.200,25369.000,0.300,5336.000,0.500,1929.000,1.000,1221.000,5.000,1.000
"07/03/06","17:13:32","AMMA06",68778.000,"cc",28337.016,6.00,2833.702,1,6,0.100,34895.000,0.200,25414.000,0.300,5161.000,0.500,2040.000,1.000,1267.000,5.000,1.000
"07/03/06","17:13:38","AMMA06",68895.000,"cc",28280.102,6.00,2828.010,1,6,0.100,34675.000,0.200,25592.000,0.300,5364.000,0.500,1964.000,1.000,1296.000,5.000,4.000
"07/03/06","17:13:44","AMMA06",68598.000,"cc",28314.141,6.00,2831.414,1,6,0.100,34555.000,0.200,25476.000,0.300,5325.000,0.500,1998.000,1.000,1244.000,5.000,0
"07/03/06","17:13:50","AMMA06",68604.000,"cc",28333.305,6.00,2833.331,1,6,0.100,34562.000,0.200,25609.000,0.300,5307.000,0.500,1852.000,1.000,1273.000,5.000,1.000